Weather History for Kecskemet, Hungary

Change the Weather History Date:

Saturday, January 26, 2013

  Actual Average (LHBP) Record (LHBP)
Temperature  
Mean Temperature 29 °F -  
Max Temperature 32 °F 35 °F 46 °F (2008)
Min Temperature 26 °F 22 °F 5 °F (2006)
Degree Days  
Heating Degree Days 36    
Moisture  
Dew Point 21 °F    
Average Humidity 73    
Maximum Humidity 86    
Minimum Humidity 60    
Precipitation  
Precipitation 0.00 in - - ()
Sea Level Pressure  
Sea Level Pressure 29.96 in    
Wind  
Wind Speed 8 mph ()    
Max Wind Speed 13 mph    
Max Gust Speed 22 mph    
Visibility 5.7 miles    
Events      
Averages and records for this station are not official NWS values.
T = Trace of Precipitation, MM = Missing Value Source: Averaged Metar Reports

Daily Weather History Graph

Daily Weather History Graph

Search for Another Location

Airport:

Trip Planner

Search our weather history database for the weather conditions in past years. The results will help you decide how hot, cold, wet, or windy it might be!

Date:

Astronomy

Jan. 26, 2013 Rise Set
Actual Time 7:12 AM CET 4:34 PM CET
Civil Twilight 6:39 AM CET 5:08 PM CET
Nautical Twilight 6:02 AM CET 5:45 PM CET
Astronomical Twilight 5:26 AM CET 6:20 PM CET
Moon 4:14 PM CET (1/26) 6:18 AM CET (1/26)
Length of Visible Light 10h 28m
Length of Day
9h 22m
Waxing Gibbous, 99% of the Moon is Illuminated
Jan 26
Waxing Gibbous
Jan 27
Full
Feb 3
Last Quarter
Feb 10
New
Feb 17
First Quarter

Hourly Weather History & Observations

Time (CET) Temp. Windchill Dew Point Humidity Pressure Visibility Wind Dir Wind Speed Gust Speed Precip Events Conditions
12:15 AM 28.4 °F 17.6 °F 19.4 °F 69% 29.92 in 6.2 mi North 13.4 mph - N/A   Overcast
12:45 AM 28.4 °F 17.6 °F 19.4 °F 69% 29.92 in 6.2 mi North 13.4 mph - N/A   Mostly Cloudy
1:15 AM 28.4 °F 18.7 °F 19.4 °F 69% 29.92 in 6.2 mi NNE 11.2 mph - N/A   Mostly Cloudy
1:45 AM 28.4 °F 18.7 °F 19.4 °F 69% 29.92 in 6.2 mi NNE 11.2 mph 22.4 mph N/A   Mostly Cloudy
2:15 AM 28.4 °F 18.7 °F 19.4 °F 69% 29.92 in 6.2 mi NNE 11.2 mph - N/A   Mostly Cloudy
2:45 AM 26.6 °F 16.4 °F 19.4 °F 74% 29.92 in 6.2 mi NNE 11.2 mph - N/A   Mostly Cloudy
3:15 AM 26.6 °F 16.4 °F 19.4 °F 74% 29.92 in 6.2 mi NNE 11.2 mph - N/A   Mostly Cloudy
3:45 AM 26.6 °F 16.4 °F 19.4 °F 74% 29.92 in - NNE 11.2 mph - N/A   Clear
4:15 AM 26.6 °F 17.7 °F 19.4 °F 74% 29.92 in - NNE 8.9 mph - N/A   Clear
4:45 AM 26.6 °F 17.7 °F 19.4 °F 74% 29.92 in - NNE 8.9 mph - N/A   Clear
5:15 AM 26.6 °F 19.2 °F 19.4 °F 74% 29.92 in 6.2 mi North 6.7 mph - N/A   Mostly Cloudy
5:45 AM - - - N/A% - 6.2 mi NNE 6.7 mph - N/A   Scattered Clouds
6:15 AM 26.6 °F 17.7 °F 19.4 °F 74% 29.92 in 6.2 mi North 8.9 mph - N/A   Overcast
6:45 AM 26.6 °F 17.7 °F 19.4 °F 74% 29.92 in 6.2 mi NNE 8.9 mph - N/A   Overcast
7:15 AM 26.6 °F 16.4 °F 19.4 °F 74% 29.95 in 6.2 mi NE 11.2 mph - N/A   Overcast
7:45 AM 26.6 °F 16.4 °F 19.4 °F 74% 29.95 in 6.2 mi NNE 11.2 mph - N/A   Mostly Cloudy
8:15 AM 26.6 °F 16.4 °F 19.4 °F 74% 29.95 in 6.2 mi NE 11.2 mph - N/A   Mostly Cloudy
8:45 AM - - - N/A% - 6.2 mi NNE 8.9 mph - N/A   Mostly Cloudy
9:15 AM 28.4 °F 18.7 °F 19.4 °F 69% 29.95 in 6.2 mi NE 11.2 mph - N/A   Mostly Cloudy
9:45 AM 28.4 °F 18.7 °F 19.4 °F 69% 29.95 in 6.2 mi NE 11.2 mph - N/A   Mostly Cloudy
10:15 AM 28.4 °F 18.7 °F 19.4 °F 69% 29.95 in 6.2 mi NE 11.2 mph - N/A   Mostly Cloudy
10:45 AM 28.4 °F 18.7 °F 19.4 °F 69% 29.95 in 6.2 mi NE 11.2 mph - N/A   Mostly Cloudy
11:15 AM 30.2 °F 22.1 °F 19.4 °F 64% 29.95 in - NE 8.9 mph - N/A   Clear
11:45 AM - - - N/A% - 3.1 mi NE 8.9 mph - N/A   Clear
12:15 PM 30.2 °F 23.5 °F 21.2 °F 69% 29.95 in 6.2 mi ENE 6.7 mph - N/A   Mostly Cloudy
12:45 PM 32.0 °F 25.7 °F 19.4 °F 60% 29.95 in 6.2 mi NE 6.7 mph - N/A   Mostly Cloudy
1:15 PM 32.0 °F 25.7 °F 21.2 °F 64% 29.95 in 6.2 mi NE 6.7 mph - N/A   Mostly Cloudy
1:45 PM 32.0 °F 27.6 °F 21.2 °F 64% 29.95 in 6.2 mi NNE 4.5 mph - N/A   Mostly Cloudy
2:15 PM 32.0 °F 25.7 °F 21.2 °F 64% 29.95 in 6.2 mi NNE 6.7 mph - N/A   Mostly Cloudy
2:45 PM - - - N/A% - 6.2 mi NE 8.9 mph - N/A   Scattered Clouds
3:15 PM 32.0 °F 25.7 °F 21.2 °F 64% 29.95 in 6.2 mi North 6.7 mph - N/A   Mostly Cloudy
3:45 PM 30.2 °F 23.5 °F 21.2 °F 69% 29.98 in - North 6.7 mph - N/A   Clear
4:15 PM 30.2 °F 23.5 °F 21.2 °F 69% 29.98 in - North 6.7 mph - N/A   Clear
4:45 PM 30.2 °F 23.5 °F 23.0 °F 75% 29.98 in - North 6.7 mph - N/A   Clear
5:15 PM 30.2 °F 23.5 °F 21.2 °F 69% 29.98 in - North 6.7 mph - N/A   Clear
5:45 PM - - - N/A% - 3.1 mi NNW 4.5 mph - N/A   Clear
6:15 PM 30.2 °F 25.5 °F 23.0 °F 75% 30.01 in - NE 4.5 mph - N/A   Clear
6:45 PM 30.2 °F 25.5 °F 23.0 °F 75% 30.01 in - NE 4.5 mph - N/A   Clear
7:15 PM 28.4 °F - 23.0 °F 80% 30.01 in - North 2.2 mph - N/A   Clear
7:45 PM 28.4 °F - 23.0 °F 80% 30.01 in - North 2.2 mph - N/A   Clear
8:15 PM 28.4 °F - 23.0 °F 80% 30.01 in - NW 2.2 mph - N/A   Clear
8:45 PM - - - N/A% - 1.7 mi NW 4.5 mph - N/A   Clear
9:15 PM 28.4 °F 23.4 °F 24.8 °F 86% 30.04 in - NW 4.5 mph - N/A   Clear
9:45 PM 28.4 °F 23.4 °F 24.8 °F 86% 30.04 in - WNW 4.5 mph - N/A   Clear
10:15 PM 28.4 °F 23.4 °F 24.8 °F 86% 30.04 in - WNW 4.5 mph - N/A   Clear
10:45 PM 28.4 °F 23.4 °F 24.8 °F 86% 30.04 in - WNW 4.5 mph - N/A   Clear
11:15 PM 28.4 °F 23.4 °F 24.8 °F 86% 30.04 in - NW 4.5 mph - N/A   Clear
11:45 PM - - - N/A% - 1.7 mi North - - N/A   Mist